{"data":{"norad_id":68033,"intl_designator":"2026-040U","name":"STARLINK-36947","alt_names":[],"object_type":"PAYLOAD","status":"ACTIVE","operator":null,"country":"US","launch_date":"2026-03-01","launch_site_code":"AFWTR","launch_vehicle":null,"mission":null,"orbit_class":"UNKNOWN","rcs_meters":null,"size_class":null,"mass_kg":null,"dimensions":null,"purposes":["comms"],"wikipedia_slug":null,"has_3d_model":false,"image_url":null,"decayed_at":null,"tle_current":{"epoch":"2026-09-19T02:17:43.258848Z","epoch_age_seconds":180909,"freshness":"STALE","line1":"1 68033U 26040U   26262.09563957  .00020253  00000+0  62762-3 0  9991","line2":"2 68033  97.2890 209.4712 0003266  98.1826 261.9787 15.33459587 31108","mean_motion":15.33459587,"eccentricity":0.0003266,"inclination_deg":97.289,"raan_deg":209.4712,"arg_perigee_deg":98.1826,"mean_anomaly_deg":261.9787,"bstar":0.00062762,"rev_number":3110,"period_min":93.905311376165,"perigee_km":463.26464240256,"apogee_km":467.73490594344,"semimajor_km":6843.636774173,"source":"CELESTRAK","updated_at":"2026-09-20T09:00:43.745196Z"}}}